Location: Dilsberg
(49.3983°N, 8.8354°E)
Time: 01:59:30
(UTC+00:00)

PSLV R/B - Pass Details

Date: 19 May 2025
Orbit: 400 x 430 km, 97.7° (Epoch: 23 June)

Event Time Altitude Azimuth Distance (km) Brightness Sun altitude
Exits shadow 19:22:18 - 107° (ESE) 2,121 6.2 -2.8°
Reaches altitude 10° 19:25:07 10° 70° (ENE) 1,512 5.8 -3.2°
Drops below altitude 10° 19:26:17 10° 49° (NE) 1,519 6.0 -3.4°
Enters shadow 20:20:26 -72° 169° (S) 12,535 10.6 -9.9°
Maximum altitude 20:57:19 65° 257° (WSW) 467 3.5 -13.6°
